Reading, PA

2:54 PM EDT on July 28, 2016 (GMT -0400)
Reading Regional-Spaatz

Weather History for KRDG - March, 2013

Change the Weather History Date:

Thursday, March 28, 2013

  Actual Average Record
Temperature  
Mean Temperature 42 °F 45 °F  
Max Temperature 48 °F 55 °F 85 °F (1945)
Min Temperature 35 °F 35 °F 17 °F (1923)
Degree Days  
Heating Degree Days 23 20  
Month to date heating degree days 715 685  
Since 1 July heating degree days 4426 4727  
Cooling Degree Days 0 0  
Month to date cooling degree days 0 0  
Year to date cooling degree days 0 0  
Moisture  
Dew Point 27 °F    
Average Humidity 59    
Maximum Humidity 76    
Minimum Humidity 42    
Precipitation  
Precipitation T in 0.13 in 1.88 in (1932)
Month to date precipitation 2.03 3.07  
Year to date precipitation 6.97 8.60  
Sea Level Pressure  
Sea Level Pressure 30.10 in    
Wind  
Wind Speed 9 mph (NW)    
Max Wind Speed 20 mph    
Max Gust Speed 24 mph    
Visibility 10 miles    
Events      
T = Trace of Precipitation, MM = Missing Value Source: NWS Daily Summary

Daily Weather History Graph

Daily Weather History Graph

Search for Another Location

Airport or City:

Trip Planner

Search our weather history database for the weather conditions in past years. The results will help you decide how hot, cold, wet, or windy it might be!

Date:

Astronomy

Mar. 28, 2013 Rise Set
Actual Time 6:53 AM EDT 7:24 PM EDT
Civil Twilight 6:26 AM EDT 7:51 PM EDT
Nautical Twilight 5:54 AM EDT 8:24 PM EDT
Astronomical Twilight 5:21 AM EDT 8:57 PM EDT
Moon 9:14 PM EDT 7:19 AM EDT
Length of Visible Light 13h 25m
Length of Day
12h 30m
Full, 98% of the Moon is Illuminated
Mar 28
Full
Apr 3
Last Quarter
Apr 10
New
Apr 18
First Quarter
Apr 25
Full

Hourly Weather History & Observations

Time (EDT) Temp. Windchill Dew Point Humidity Pressure Visibility Wind Dir Wind Speed Gust Speed Precip Events Conditions
12:54 AM 37.9 °F 35.5 °F 26.1 °F 62% 30.06 in 10.0 mi West 3.5 mph - N/A   Clear
1:54 AM 36.0 °F 32.1 °F 26.1 °F 67% 30.06 in 10.0 mi WSW 4.6 mph - N/A   Mostly Cloudy
2:54 AM 35.1 °F 30.1 °F 26.1 °F 70% 30.05 in 10.0 mi West 5.8 mph - N/A   Partly Cloudy
3:54 AM 36.0 °F 31.1 °F 26.1 °F 67% 30.04 in 10.0 mi West 5.8 mph - N/A   Mostly Cloudy
4:54 AM 35.1 °F 30.1 °F 27.0 °F 72% 30.04 in 10.0 mi West 5.8 mph - N/A   Scattered Clouds
5:54 AM 35.1 °F 29.3 °F 27.0 °F 72% 30.04 in 10.0 mi West 6.9 mph - N/A   Clear
6:54 AM 37.0 °F 31.0 °F 28.0 °F 70% 30.05 in 10.0 mi WNW 8.1 mph - N/A   Overcast
7:54 AM 37.9 °F 35.5 °F 30.0 °F 73% 30.07 in 10.0 mi Variable 3.5 mph - N/A   Overcast
8:54 AM 39.9 °F 33.9 °F 30.0 °F 68% 30.07 in 10.0 mi WNW 9.2 mph - N/A   Overcast
9:54 AM 42.1 °F 36.1 °F 30.0 °F 62% 30.08 in 10.0 mi NNW 10.4 mph - N/A   Overcast
10:54 AM 44.1 °F 37.7 °F 28.0 °F 53% 30.09 in 10.0 mi NNW 12.7 mph - N/A   Mostly Cloudy
11:54 AM 46.9 °F - 28.0 °F 48% 30.09 in 10.0 mi NW 13.8 mph - N/A   Overcast
12:54 PM 46.0 °F 41.0 °F 28.9 °F 51% 30.09 in 10.0 mi NNW 10.4 mph - 0.00 in   Overcast
1:54 PM 45.0 °F 40.6 °F 28.9 °F 53% 30.09 in 10.0 mi NW 8.1 mph 18.4 mph N/A   Overcast
2:54 PM 45.0 °F 38.9 °F 30.9 °F 58% 30.09 in 10.0 mi NW 12.7 mph - 0.00 in   Overcast
3:54 PM 46.0 °F 39.9 °F 27.0 °F 47% 30.09 in 10.0 mi NW 13.8 mph 23.0 mph N/A   Overcast
4:54 PM 48.0 °F - 26.1 °F 42% 30.09 in 10.0 mi NW 10.4 mph - N/A   Overcast
5:54 PM 46.9 °F - 25.0 °F 42% 30.11 in 10.0 mi North 11.5 mph - N/A   Overcast
6:54 PM 46.9 °F - 25.0 °F 42% 30.13 in 10.0 mi NNW 10.4 mph - N/A   Overcast
7:54 PM 45.0 °F 39.7 °F 26.1 °F 48% 30.15 in 10.0 mi NW 10.4 mph - N/A   Overcast
8:54 PM 45.0 °F 40.6 °F 27.0 °F 49% 30.17 in 10.0 mi NW 8.1 mph - N/A   Overcast
9:54 PM 44.1 °F 38.6 °F 26.1 °F 49% 30.18 in 10.0 mi NW 10.4 mph - N/A   Overcast
10:54 PM 44.1 °F 38.6 °F 26.1 °F 49% 30.19 in 10.0 mi NW 10.4 mph - N/A   Overcast
11:54 PM 44.1 °F 39.0 °F 26.1 °F 49% 30.19 in 10.0 mi NW 9.2 mph - N/A   Overcast